Caldwell, ID

7:48 AM MDT on October 01, 2016 (GMT -0600)
Caldwell Industrial

Weather History for KEUL - September, 2013

Change the Weather History Date:

Friday, September 6, 2013

  Actual Average (KBOI) Record (KBOI)
Temperature  
Mean Temperature 67 °F 68 °F  
Max Temperature 77 °F 83 °F 98 °F (1955)
Min Temperature 57 °F 54 °F 32 °F (1886)
Degree Days  
Heating Degree Days 0 2  
Month to date heating degree days 7  
Since 1 July heating degree days 25  
Cooling Degree Days 2 5  
Month to date cooling degree days 33  
Year to date cooling degree days 867  
Growing Degree Days 17 (Base 50)    
Moisture  
Dew Point 48 °F    
Average Humidity 55    
Maximum Humidity 77    
Minimum Humidity 32    
Precipitation  
Precipitation 0.00 in 0.02 in 0.43 in (1978)
Month to date precipitation 0.09  
Year to date precipitation 7.59  
Snow  
Snow 0.00 in 0.00 in 0.00 in (2006)
Month to date snowfall 0.0  
Since 1 July snowfall 0.0  
Snow Depth -    
Sea Level Pressure  
Sea Level Pressure 30.06 in    
Wind  
Wind Speed 5 mph (NNW)    
Max Wind Speed 13 mph    
Max Gust Speed -    
Visibility 10 miles    
Events      
T = Trace of Precipitation, MM = Missing Value Source: NWS Daily Summary

Daily Weather History Graph

Daily Weather History Graph

Search for Another Location

Airport or City:

Trip Planner

Search our weather history database for the weather conditions in past years. The results will help you decide how hot, cold, wet, or windy it might be!

Date:

Astronomy

Sep. 06, 2013 Rise Set
Actual Time 7:16 AM MDT 8:12 PM MDT
Civil Twilight 6:46 AM MDT 8:41 PM MDT
Nautical Twilight 6:12 AM MDT 9:16 PM MDT
Astronomical Twilight 5:35 AM MDT 9:52 PM MDT
Moon 8:37 AM MDT (9/6) 8:34 PM MDT (9/6)
Length of Visible Light 13h 54m
Length of Day
12h 56m
New Moon, 2% of the Moon is Illuminated
Sep 6
New Moon
Sep 12
First Quarter
Sep 19
Full
Sep 26
Last Quarter
Oct 4
New

Hourly Weather History & Observations

Time (MDT) Temp. Dew Point Humidity Pressure Visibility Wind Dir Wind Speed Gust Speed Precip Events Conditions
12:15 AM 64.4 °F 55.4 °F 73% 29.94 in 10.0 mi NNW 5.8 mph - N/A   Clear
12:35 AM 64.4 °F 55.4 °F 73% 29.95 in 10.0 mi NNW 3.5 mph - N/A   Clear
12:55 AM 62.6 °F 55.4 °F 77% 29.95 in 10.0 mi WNW 3.5 mph - N/A   Clear
1:15 AM 62.6 °F 55.4 °F 77% 29.96 in 10.0 mi West 5.8 mph - N/A   Clear
1:35 AM 62.6 °F 55.4 °F 77% 29.97 in 10.0 mi Calm Calm - N/A   Clear
1:55 AM 62.6 °F 53.6 °F 72% 29.98 in 10.0 mi West 3.5 mph - N/A   Clear
2:15 AM 62.6 °F 53.6 °F 72% 29.99 in 10.0 mi Calm Calm - N/A   Clear
2:35 AM 60.8 °F 53.6 °F 77% 29.99 in 10.0 mi Calm Calm - N/A   Clear
2:55 AM 62.6 °F 55.4 °F 77% 29.99 in 10.0 mi North 3.5 mph - N/A   Clear
3:15 AM 62.6 °F 53.6 °F 72% 29.99 in 10.0 mi Calm Calm - N/A   Clear
3:35 AM 62.6 °F 53.6 °F 72% 30.00 in 10.0 mi SSW 4.6 mph - N/A   Clear
3:55 AM 62.6 °F 53.6 °F 72% 30.01 in 10.0 mi Calm Calm - N/A   Clear
4:15 AM 62.6 °F 53.6 °F 72% 30.02 in 10.0 mi Calm Calm - N/A   Clear
4:35 AM 60.8 °F 53.6 °F 77% 30.02 in 10.0 mi NW 3.5 mph - N/A   Clear
4:55 AM 60.8 °F 51.8 °F 72% 30.03 in 10.0 mi Calm Calm - N/A   Clear
5:15 AM 60.8 °F 51.8 °F 72% 30.03 in 10.0 mi Calm Calm - N/A   Clear
5:35 AM 60.8 °F 53.6 °F 77% 30.04 in 10.0 mi Calm Calm - N/A   Clear
5:55 AM 60.8 °F 51.8 °F 72% 30.05 in 10.0 mi NW 3.5 mph - N/A   Clear
6:15 AM 60.8 °F 51.8 °F 72% 30.06 in 10.0 mi WNW 6.9 mph - N/A   Clear
6:35 AM 60.8 °F 51.8 °F 72% 30.06 in 10.0 mi NW 5.8 mph - N/A   Clear
6:55 AM 60.8 °F 51.8 °F 72% 30.07 in 10.0 mi NW 6.9 mph - N/A   Clear
7:15 AM 59.0 °F 50.0 °F 72% 30.08 in 10.0 mi NW 5.8 mph - N/A   Clear
7:35 AM 57.2 °F 48.2 °F 72% 30.08 in 10.0 mi NW 6.9 mph - N/A   Clear
7:55 AM 57.2 °F 48.2 °F 72% 30.10 in 10.0 mi NW 5.8 mph - N/A   Clear
8:15 AM 57.2 °F 48.2 °F 72% 30.10 in 10.0 mi NW 4.6 mph - N/A   Clear
8:35 AM 59.0 °F 50.0 °F 72% 30.11 in 10.0 mi NNW 3.5 mph - N/A   Clear
8:55 AM 60.8 °F 51.8 °F 72% 30.12 in 10.0 mi NNW 5.8 mph - N/A   Clear
9:15 AM 62.6 °F 51.8 °F 68% 30.12 in 10.0 mi NNW 5.8 mph - N/A   Clear
9:35 AM 64.4 °F 48.2 °F 56% 30.13 in 10.0 mi NW 4.6 mph - N/A   Clear
9:55 AM 64.4 °F 46.4 °F 52% 30.13 in 10.0 mi NW 6.9 mph - N/A   Clear
10:15 AM 64.4 °F 46.4 °F 52% 30.14 in 10.0 mi NW 8.1 mph - N/A   Clear
10:35 AM 66.2 °F 46.4 °F 49% 30.15 in 10.0 mi NNW 9.2 mph - N/A   Clear
10:55 AM 66.2 °F 48.2 °F 52% 30.15 in 10.0 mi NNW 12.7 mph - N/A   Clear
11:15 AM 68.0 °F 44.6 °F 43% 30.15 in 10.0 mi NNW 10.4 mph - N/A   Clear
11:35 AM 68.0 °F 44.6 °F 43% 30.15 in 10.0 mi NW 9.2 mph - N/A   Clear
11:55 AM 69.8 °F 44.6 °F 40% 30.15 in 10.0 mi NW 9.2 mph - N/A   Clear
12:15 PM 69.8 °F 46.4 °F 43% 30.15 in 10.0 mi NNW 8.1 mph - N/A   Clear
12:35 PM 69.8 °F 46.4 °F 43% 30.14 in 10.0 mi NNE 9.2 mph - N/A   Clear
12:55 PM 69.8 °F 44.6 °F 40% 30.14 in 10.0 mi NW 10.4 mph - N/A   Clear
1:15 PM 71.6 °F 46.4 °F 41% 30.13 in 10.0 mi NNW 8.1 mph - N/A   Clear
1:35 PM 71.6 °F 46.4 °F 41% 30.13 in 10.0 mi NNW 11.5 mph - N/A   Clear
1:55 PM 73.4 °F 46.4 °F 38% 30.12 in 10.0 mi Calm Calm - N/A   Clear
2:15 PM 73.4 °F 46.4 °F 38% 30.12 in 10.0 mi North 9.2 mph - N/A   Clear
2:35 PM 73.4 °F 44.6 °F 36% 30.11 in 10.0 mi NNW 8.1 mph - N/A   Clear
2:55 PM 75.2 °F 46.4 °F 36% 30.10 in 10.0 mi North 9.2 mph - N/A   Clear
3:15 PM 75.2 °F 46.4 °F 36% 30.09 in 10.0 mi North 9.2 mph - N/A   Clear
3:35 PM 75.2 °F 44.6 °F 34% 30.08 in 10.0 mi WNW 10.4 mph - N/A   Clear
3:55 PM 75.2 °F 46.4 °F 36% 30.08 in 10.0 mi North 9.2 mph - N/A   Clear
5:15 PM 77.0 °F 44.6 °F 32% 30.05 in 10.0 mi North 12.7 mph - N/A   Clear
5:35 PM 77.0 °F 44.6 °F 32% 30.04 in 10.0 mi NW 10.4 mph - N/A   Clear
5:55 PM 77.0 °F 44.6 °F 32% 30.04 in 10.0 mi North 12.7 mph - N/A   Clear
6:15 PM 77.0 °F 44.6 °F 32% 30.04 in 10.0 mi North 10.4 mph - N/A   Clear
6:35 PM 75.2 °F 44.6 °F 34% 30.04 in 10.0 mi North 10.4 mph - N/A   Clear
6:55 PM 75.2 °F 44.6 °F 34% 30.04 in 10.0 mi NNE 9.2 mph - N/A   Clear
7:15 PM 75.2 °F 44.6 °F 34% 30.04 in 10.0 mi NNE 10.4 mph - N/A   Clear
7:35 PM 73.4 °F 44.6 °F 36% 30.04 in 10.0 mi NNE 9.2 mph - N/A   Clear
7:55 PM 71.6 °F 44.6 °F 38% 30.04 in 10.0 mi NNE 6.9 mph - N/A   Clear
8:15 PM 69.8 °F 44.6 °F 40% 30.04 in 10.0 mi NNE 4.6 mph - N/A   Clear
8:35 PM 66.2 °F 46.4 °F 49% 30.04 in 10.0 mi NNE 3.5 mph - N/A   Clear
8:55 PM 66.2 °F 46.4 °F 49% 30.04 in 10.0 mi NNE 3.5 mph - N/A   Clear
9:15 PM 64.4 °F 44.6 °F 49% 30.05 in 10.0 mi Calm Calm - N/A   Clear
9:35 PM 64.4 °F 44.6 °F 49% 30.06 in 10.0 mi Calm Calm - N/A   Clear
9:55 PM 64.4 °F 42.8 °F 45% 30.06 in 10.0 mi Calm Calm - N/A   Clear
10:15 PM 64.4 °F 44.6 °F 49% 30.06 in 10.0 mi South 5.8 mph - N/A   Clear
10:35 PM 62.6 °F 46.4 °F 55% 30.07 in 10.0 mi South 5.8 mph - N/A   Clear
10:55 PM 62.6 °F 44.6 °F 52% 30.07 in 10.0 mi SSW 3.5 mph - N/A   Clear
11:15 PM 62.6 °F 46.4 °F 55% 30.07 in 10.0 mi SW 3.5 mph - N/A   Clear
11:35 PM 60.8 °F 46.4 °F 59% 30.07 in 10.0 mi Calm Calm - N/A   Clear
11:55 PM 60.8 °F 46.4 °F 59% 30.07 in 10.0 mi Calm Calm - N/A   Clear